Location: Chisholm
(54.9102°N, 114.1701°W)
Time: 04:40:43
(UTC+00:00)

ISS - Pass Details

Date: 29 November 2021
Orbit: 413 x 422 km, 51.6° (Epoch: 23 January)

Event Time Altitude Azimuth Distance (km) Brightness Sun altitude
Rises 02:04:56 0° 267° (W) 2,384 1.6 -23.1°
Reaches altitude 10° 02:07:05 10° 261° (W) 1,516 0.2 -23.4°
Enters shadow 02:09:34 37° 228° (SW) 676 -2.4 -23.8°
